Flag for Germany Weather past 2 weeks in Leipzig, Saxony, Germany

Now
50 °F

Overcast.


Feels Like: 50 °F
Forecast: 43 / 55 °F
Wind: 1 mph from North

Location: Leipzig-Schkeuditz

Current Time: Oct 23, 2014 at 8:24:49 PM

Latest Report: Oct 23, 2014 at 7:50 PM


Visibility: N/A

Pressure: 30.21 "Hg

Humidity: 94%

Dew point: 48 °F

Location of LeipzigLocation

Historic Weather in Leipzig — Graph

°F

Leipzig temperature yesterday

Maximum temperature yesterday: 52 °F (at 7:20 PM)
Minimum temperature yesterday: 43 °F (at 7:20 AM)
Average temperature yesterday: 48 °F

Past Weeks' High & Low Weather Summary

 TemperatureHumidityPressure
High73 °F (Oct 9, 3:20 PM)100% (Oct 10, 7:20 AM)30.21 "Hg (Oct 10, 7:20 AM)
Low43 °F (Oct 22, 7:20 AM)52% (Oct 15, 3:50 PM)29.47 "Hg (Oct 21, 8:50 PM)
Average57 °F87%29.88 "Hg
* Reported Oct 8 7:20 PM — Oct 23 7:20 PM, Leipzig, Weather by CustomWeather, © 2014

Note: Actual official high and low records may vary slightly from our data, if they occured in-between our weather recording intervals... More about our weather records

Advertising

Leipzig weather history for previous 24 hours

 ConditionsComfort  
Time TempWeatherWind HumidityBarometerVisibility
7:20 PM
Oct 23
50 °FPassing clouds.6 mph94%30.21 "HgN/A
6:50 PM50 °FPartly sunny.3 mph94%30.21 "HgN/A
6:20 PM50 °FPartly sunny.5 mph94%30.18 "HgN/A
5:50 PM52 °FPartly sunny.5 mph88%30.18 "HgN/A
5:20 PM52 °FPartly sunny.7 mph88%30.18 "HgN/A
4:50 PM52 °FLight rain. Partly sunny.7 mph88%30.18 "HgN/A
4:20 PM52 °FPartly sunny.7 mph88%30.18 "HgN/A
3:50 PM52 °FPartly sunny.8 mph88%30.18 "HgN/A
3:20 PM50 °FPartly sunny.9 mph94%30.18 "HgN/A
2:50 PM50 °FMostly cloudy.9 mph94%30.18 "HgN/A
2:20 PM50 °FMore clouds than sun.10 mph94%30.18 "HgN/A
1:50 PM50 °FMore clouds than sun.10 mph94%30.18 "HgN/A
1:20 PM50 °FPartly sunny.10 mph94%30.18 "Hg5 mi
12:50 PM50 °FMostly cloudy.10 mph94%30.18 "Hg5 mi
12:20 PM50 °FMostly cloudy.12 mph88%30.15 "Hg5 mi
11:50 AM48 °FPartly sunny.14 mph94%30.15 "Hg5 mi
11:20 AM48 °FPartly sunny.14 mph94%30.15 "Hg5 mi
10:50 AM48 °FPartly sunny.15 mph94%30.12 "Hg4 mi
10:20 AM48 °FDrizzle. Partly sunny.15 mph94%30.12 "Hg4 mi
9:50 AM48 °FPartly sunny.14 mph94%30.12 "Hg5 mi
9:20 AM48 °FPartly sunny.15 mph94%30.12 "Hg5 mi
8:50 AM48 °FPartly sunny.14 mph94%30.09 "Hg4 mi
8:20 AM48 °FPassing clouds.17 mph94%30.09 "Hg4 mi
7:50 AM48 °FPassing clouds.18 mph100%30.07 "Hg4 mi
7:20 AM48 °FPassing clouds.17 mph100%30.07 "Hg4 mi
6:50 AM48 °FPassing clouds.18 mph100%30.04 "Hg4 mi
6:20 AM48 °FPassing clouds.16 mph100%30.04 "Hg4 mi
5:50 AM48 °FPassing clouds.17 mph100%30.04 "Hg3 mi
5:20 AM48 °FPassing clouds.17 mph100%30.01 "Hg3 mi
4:50 AM50 °FLight rain. Passing clouds.17 mph100%30.01 "Hg4 mi
4:20 AM50 °FLight rain. Passing clouds.18 mph100%30.01 "Hg4 mi
3:50 AM50 °FLight rain. Passing clouds.17 mph100%30.01 "Hg4 mi
3:20 AM50 °FLight rain. Passing clouds.16 mph100%29.98 "Hg4 mi
2:50 AM50 °FLight rain. Passing clouds.20 mph100%29.98 "Hg3 mi
2:20 AM50 °FLight rain. Passing clouds.21 mph100%29.98 "Hg5 mi
1:50 AM52 °FLight rain. Passing clouds.18 mph100%29.95 "Hg5 mi
1:20 AM52 °FLight rain. Passing clouds.16 mph100%29.95 "Hg4 mi
12:50 AM52 °FDrizzle. Fog.18 mph100%29.95 "Hg3 mi
12:20 AM52 °FPassing clouds.17 mph100%29.92 "Hg3 mi
11:50 PM
Oct 22
52 °FLight rain. Passing clouds.14 mph100%29.92 "Hg4 mi
11:20 PM52 °FPassing clouds.17 mph100%29.92 "Hg5 mi
10:50 PM52 °FPassing clouds.16 mph100%29.89 "Hg3 mi
10:20 PM52 °FPassing clouds.17 mph100%29.89 "Hg3 mi
9:50 PM52 °FPassing clouds.18 mph100%29.86 "Hg3 mi
9:20 PM52 °FLight rain. Passing clouds.21 mph100%29.83 "HgN/A
8:50 PM52 °FLight rain. Mostly cloudy.21 mph100%29.83 "HgN/A
8:20 PM52 °FLight rain. Mostly cloudy.21 mph100%29.80 "HgN/A
Weather by CustomWeather, © 2014

See weather overviewHow to use our weather pages